{"data":{"norad_id":59859,"epoch":"2026-05-25T05:02:24.851040Z","epoch_age_seconds":57168,"freshness":"FRESH","line1":"1 59859U 24098B   26145.21000985 -.00000591  00000+0 -11957-4 0  9995","line2":"2 59859  42.9986 209.7477 0001248 277.5956  82.4754 15.27573468113506","mean_motion":15.27573468,"eccentricity":0.0001248,"inclination_deg":42.9986,"raan_deg":209.7477,"arg_perigee_deg":277.5956,"mean_anomaly_deg":82.4754,"bstar":-1.1957e-5,"rev_number":11350,"period_min":94.267151804184,"perigee_km":482.21237680145,"apogee_km":483.924933733,"semimajor_km":6861.2056552672,"source":"CELESTRAK","updated_at":"2026-05-25T13:38:19.090524Z"}}